| time (UTC) | temp F | wind direction | speed MPH | gust MPH | rain 1hr in | rain 24hr in | rain mn in | humidity % | barometer mb |
| 20260506004127 | 63 | 115 | 0.0 | 11.0 | 0.00 | 0.31 | 0.00 | 47 | 1014.7 |
| 20260506003622 | 63 | 111 | 2.0 | 11.0 | 0.00 | 0.31 | 0.00 | 48 | 1014.6 |
| 20260506003122 | 63 | 114 | 0.0 | 11.0 | 0.00 | 0.32 | 0.00 | 48 | 1014.5 |
| 20260506002622 | 63 | 149 | 0.0 | 13.0 | 0.00 | 0.32 | 0.00 | 49 | 1014.5 |
| 20260506002130 | 63 | 126 | 12.0 | 14.0 | 0.00 | 0.32 | 0.00 | 49 | 1014.4 |
| 20260506001628 | 63 | 117 | 7.0 | 12.0 | 0.00 | 0.32 | 0.00 | 49 | 1014.3 |
| 20260506001122 | 63 | 148 | 9.0 | 9.0 | 0.00 | 0.33 | 0.00 | 50 | 1014.3 |
| 20260506000622 | 63 | 127 | 0.0 | 12.0 | 0.00 | 0.33 | 0.00 | 49 | 1014.3 |
| 20260506000131 | 63 | 128 | 7.0 | 11.0 | 0.00 | 0.33 | 0.00 | 49 | 1014.3 |
| 20260505235625 | 64 | 160 | 2.0 | 12.0 | 0.00 | 0.33 | 0.00 | 49 | 1014.3 |
| 20260505235122 | 64 | 167 | 2.0 | 10.0 | 0.00 | 0.33 | 0.00 | 49 | 1014.4 |
| 20260505234622 | 64 | 118 | 0.0 | 11.0 | 0.00 | 0.34 | 0.00 | 48 | 1014.3 |
| 20260505234124 | 64 | 167 | 2.0 | 13.0 | 0.00 | 0.34 | 0.00 | 48 | 1014.2 |
| 20260505233622 | 64 | 132 | 8.0 | 12.0 | 0.00 | 0.34 | 0.00 | 46 | 1014.3 |
| 20260505233123 | 64 | 126 | 4.0 | 10.0 | 0.00 | 0.34 | 0.00 | 46 | 1014.3 |
| 20260505232625 | 64 | 127 | 4.0 | 9.0 | 0.00 | 0.35 | 0.00 | 44 | 1014.3 |
| 20260505232122 | 64 | 150 | 9.0 | 11.0 | 0.00 | 0.35 | 0.00 | 45 | 1014.3 |
| 20260505231627 | 64 | 163 | 5.0 | 11.0 | 0.00 | 0.35 | 0.00 | 46 | 1014.3 |
| 20260505231121 | 64 | 140 | 7.0 | 12.0 | 0.00 | 0.35 | 0.00 | 45 | 1014.3 |
| 20260505230621 | 64 | 132 | 1.0 | 8.0 | 0.00 | 0.36 | 0.00 | 45 | 1014.3 |
| 20260505230125 | 64 | 131 | 4.0 | 12.0 | 0.00 | 0.36 | 0.00 | 45 | 1014.3 |
| 20260505225622 | 65 | 162 | 4.0 | 8.0 | 0.00 | 0.36 | 0.00 | 42 | 1014.2 |
| 20260505225124 | 64 | 188 | 3.0 | 10.0 | 0.00 | 0.37 | 0.00 | 43 | 1014.3 |
| 20260505224628 | 64 | 156 | 1.0 | 9.0 | 0.00 | 0.37 | 0.00 | 43 | 1014.4 |
| 20260505224122 | 65 | 112 | 0.0 | 9.0 | 0.00 | 0.38 | 0.00 | 40 | 1014.3 |
| 20260505223624 | 65 | 118 | 8.0 | 9.0 | 0.00 | 0.39 | 0.00 | 43 | 1014.4 |
| 20260505223123 | 65 | 111 | 5.0 | 9.0 | 0.00 | 0.39 | 0.00 | 43 | 1014.4 |
| 20260505222625 | 65 | 103 | 1.0 | 7.0 | 0.00 | 0.39 | 0.00 | 44 | 1014.5 |
| 20260505222125 | 65 | 106 | 4.0 | 9.0 | 0.00 | 0.39 | 0.00 | 47 | 1014.5 |
| 20260505221628 | 66 | 123 | 1.0 | 6.0 | 0.00 | 0.39 | 0.00 | 48 | 1014.4 |
| 20260505221122 | 66 | 129 | 5.0 | 7.0 | 0.00 | 0.39 | 0.00 | 49 | 1014.4 |
| 20260505220628 | 66 | 131 | 2.0 | 7.0 | 0.00 | 0.39 | 0.00 | 49 | 1014.5 |
| 20260505220122 | 66 | 135 | 0.0 | 5.0 | 0.00 | 0.39 | 0.00 | 47 | 1014.6 |
| 20260505215625 | 66 | 135 | 0.0 | 2.0 | 0.00 | 0.39 | 0.00 | 46 | 1014.7 |
| 20260505215124 | 65 | 139 | 0.0 | 5.0 | 0.00 | 0.39 | 0.00 | 45 | 1014.7 |
| 20260505214628 | 65 | 139 | 0.0 | 8.0 | 0.00 | 0.39 | 0.00 | 46 | 1014.7 |
| 20260505214122 | 65 | 146 | 6.0 | 7.0 | 0.00 | 0.39 | 0.00 | 46 | 1014.7 |
| 20260505213622 | 65 | 143 | 5.0 | 7.0 | 0.00 | 0.39 | 0.00 | 47 | 1014.8 |
| 20260505213130 | 65 | 174 | 0.0 | 7.0 | 0.00 | 0.39 | 0.00 | 46 | 1014.8 |
| 20260505212622 | 65 | 182 | 0.0 | 4.0 | 0.00 | 0.39 | 0.00 | 46 | 1014.9 |
| 20260505212121 | 65 | 186 | 0.0 | 6.0 | 0.00 | 0.39 | 0.00 | 44 | 1014.9 |
| 20260505211622 | 64 | 172 | 0.0 | 6.0 | 0.00 | 0.39 | 0.00 | 42 | 1014.9 |
| 20260505211121 | 64 | 173 | 4.0 | 7.0 | 0.00 | 0.39 | 0.00 | 43 | 1014.9 |
| 20260505210626 | 64 | 155 | 0.0 | 4.0 | 0.00 | 0.39 | 0.00 | 40 | 1014.9 |
| 20260505210128 | 63 | 159 | 0.0 | 6.0 | 0.00 | 0.39 | 0.00 | 39 | 1014.9 |
| 20260505205622 | 63 | 159 | 4.0 | 8.0 | 0.00 | 0.39 | 0.00 | 38 | 1014.9 |
| 20260505205130 | 63 | 167 | 0.0 | 8.0 | 0.00 | 0.39 | 0.00 | 40 | 1014.9 |
| 20260505204621 | 63 | 182 | 0.0 | 4.0 | 0.00 | 0.39 | 0.00 | 32 | 1014.9 |
| 20260505204121 | 63 | 184 | 3.0 | 8.0 | 0.00 | 0.39 | 0.00 | 36 | 1014.8 |
| 20260505203622 | 63 | 188 | 1.0 | 5.0 | 0.00 | 0.39 | 0.00 | 38 | 1015.0 |
| 20260505203125 | 63 | 192 | 2.0 | 4.0 | 0.00 | 0.39 | 0.00 | 38 | 1015.0 |
| 20260505202622 | 63 | 194 | 0.0 | 6.0 | 0.00 | 0.39 | 0.00 | 39 | 1015.0 |
| 20260505202121 | 64 | 179 | 0.0 | 6.0 | 0.00 | 0.39 | 0.00 | 42 | 1015.0 |
| 20260505201625 | 64 | 154 | 2.0 | 9.0 | 0.00 | 0.39 | 0.00 | 46 | 1015.0 |
| 20260505201125 | 65 | 161 | 0.0 | 7.0 | 0.00 | 0.39 | 0.00 | 47 | 1015.0 |
| 20260505200622 | 65 | 161 | 0.0 | 7.0 | 0.00 | 0.39 | 0.00 | 47 | 1015.0 |
| 20260505200122 | 65 | 163 | 0.0 | 5.0 | 0.00 | 0.39 | 0.00 | 47 | 1015.0 |
| 20260505195622 | 65 | 158 | 0.0 | 6.0 | 0.00 | 0.39 | 0.00 | 46 | 1015.0 |
| 20260505195128 | 64 | 164 | 0.0 | 5.0 | 0.00 | 0.39 | 0.00 | 47 | 1015.0 |
| 20260505194621 | 64 | 163 | 0.0 | 4.0 | 0.00 | 0.39 | 0.00 | 46 | 1015.0 |
| 20260505194121 | 64 | 163 | 4.0 | 7.0 | 0.00 | 0.39 | 0.00 | 45 | 1015.1 |
| 20260505193622 | 64 | 170 | 0.0 | 10.0 | 0.00 | 0.39 | 0.00 | 41 | 1015.1 |
| 20260505193128 | 64 | 191 | 5.0 | 11.0 | 0.00 | 0.39 | 0.00 | 41 | 1015.1 |
| 20260505192631 | 64 | 159 | 0.0 | 8.0 | 0.00 | 0.39 | 0.00 | 42 | 1015.2 |
| 20260505192122 | 64 | 141 | 4.0 | 6.0 | 0.00 | 0.39 | 0.00 | 41 | 1015.1 |
| 20260505191624 | 64 | 136 | 0.0 | 7.0 | 0.00 | 0.39 | 0.00 | 46 | 1015.1 |
| 20260505191124 | 64 | 143 | 2.0 | 6.0 | 0.00 | 0.39 | 0.00 | 46 | 1015.1 |
| 20260505190625 | 64 | 143 | 0.0 | 7.0 | 0.00 | 0.39 | 0.00 | 50 | 1015.2 |
| 20260505185648 | 64 | 166 | 0.0 | 5.0 | 0.00 | 0.39 | 0.00 | 50 | 1015.1 |
| 20260505185145 | 64 | 173 | 0.0 | 4.0 | 0.00 | 0.39 | 0.00 | 47 | 1015.2 |
| 20260505184643 | 63 | 173 | 4.0 | 7.0 | 0.00 | 0.39 | 0.00 | 45 | 1015.3 |
| 20260505184145 | 63 | 173 | 0.0 | 4.0 | 0.00 | 0.39 | 0.00 | 41 | 1015.3 |
| 20260505183645 | 62 | 175 | 2.0 | 4.0 | 0.00 | 0.39 | 0.00 | 37 | 1015.3 |
| 20260505183142 | 62 | 180 | 3.0 | 4.0 | 0.00 | 0.39 | 0.00 | 39 | 1015.2 |
| 20260505182645 | 62 | 181 | 4.0 | 6.0 | 0.00 | 0.39 | 0.00 | 40 | 1015.3 |
| 20260505182142 | 62 | 143 | 1.0 | 6.0 | 0.00 | 0.39 | 0.00 | 39 | 1015.2 |
| 20260505181642 | 61 | 180 | 0.0 | 4.0 | 0.00 | 0.39 | 0.00 | 37 | 1015.2 |
| 20260505181143 | 62 | 181 | 4.0 | 5.0 | 0.00 | 0.39 | 0.00 | 40 | 1015.1 |
| 20260505180642 | 62 | 220 | 1.0 | 6.0 | 0.00 | 0.39 | 0.00 | 37 | 1015.1 |
| 20260505180142 | 62 | 153 | 0.0 | 6.0 | 0.00 | 0.39 | 0.00 | 36 | 1015.2 |
| 20260505175645 | 62 | 153 | 0.0 | 5.0 | 0.00 | 0.39 | 0.00 | 34 | 1015.1 |
| 20260505175142 | 62 | 153 | 0.0 | 0.0 | 0.00 | 0.39 | 0.00 | 28 | 1015.1 |
| 20260505174648 | 62 | 153 | 0.0 | 4.0 | 0.00 | 0.39 | 0.00 | 25 | 1015.0 |
| 20260505174142 | 61 | 155 | 0.0 | 4.0 | 0.00 | 0.39 | 0.00 | 19 | 1014.9 |
| 20260505173643 | 61 | 159 | 0.0 | 5.0 | 0.01 | 0.39 | 0.00 | 13 | 1014.9 |
| 20260505173142 | 60 | 187 | 0.0 | 0.0 | 0.01 | 0.39 | 0.00 | 100 | 1014.9 |
| 20260505172648 | 60 | 188 | 0.0 | 0.0 | 0.01 | 0.39 | 0.00 | 100 | 1014.8 |
| 20260505172142 | 59 | 188 | 0.0 | 0.0 | 0.01 | 0.39 | 0.00 | 100 | 1014.9 |
| 20260505171642 | 59 | 189 | 0.0 | 3.0 | 0.01 | 0.39 | 0.00 | 100 | 1014.9 |
| 20260505171142 | 59 | 190 | 2.0 | 5.0 | 0.01 | 0.39 | 0.00 | 100 | 1015.1 |
| 20260505170645 | 59 | 202 | 0.0 | 0.0 | 0.01 | 0.39 | 0.00 | 100 | 1015.0 |
| 20260505170152 | 59 | 202 | 0.0 | 0.0 | 0.01 | 0.39 | 0.00 | 100 | 1015.1 |
| 20260505165645 | 59 | 202 | 0.0 | 3.0 | 0.02 | 0.39 | 0.00 | 100 | 1015.0 |
| 20260505165142 | 59 | 203 | 0.0 | 0.0 | 0.02 | 0.39 | 0.00 | 100 | 1015.1 |
| 20260505164642 | 58 | 203 | 0.0 | 2.0 | 0.02 | 0.39 | 0.00 | 100 | 1015.0 |
| 20260505164142 | 57 | 203 | 2.0 | 3.0 | 0.02 | 0.39 | 0.00 | 100 | 1015.0 |
| 20260505163645 | 57 | 203 | 0.0 | 3.0 | 0.01 | 0.38 | 0.00 | 100 | 1014.9 |
| 20260505163143 | 57 | 204 | 2.0 | 4.0 | 0.01 | 0.38 | 0.00 | 100 | 1015.0 |
| 20260505162643 | 57 | 204 | 0.0 | 5.0 | 0.01 | 0.38 | 0.00 | 100 | 1014.9 |
| 20260505162142 | 57 | 93 | 0.0 | 0.0 | 0.01 | 0.38 | 0.00 | 100 | 1014.8 |
| 20260505161648 | 57 | 93 | 0.0 | 0.0 | 0.01 | 0.38 | 0.00 | 100 | 1014.8 |
| 20260505161145 | 57 | 93 | 0.0 | 5.0 | 0.02 | 0.38 | 0.00 | 100 | 1014.8 |
| 20260505160645 | 58 | 92 | 1.0 | 5.0 | 0.02 | 0.38 | 0.00 | 100 | 1014.7 |
| 20260505160149 | 58 | 90 | 0.0 | 0.0 | 0.02 | 0.38 | 0.00 | 100 | 1014.7 |
| 20260505153151 | 56 | 90 | 0.0 | 0.0 | 0.01 | 0.37 | 0.00 | 100 | 1014.5 |
| 20260505152645 | 56 | 90 | 0.0 | 0.0 | 0.01 | 0.37 | 0.00 | 100 | 1014.5 |
| 20260505152142 | 55 | 90 | 0.0 | 0.0 | 0.02 | 0.37 | 0.00 | 100 | 1014.5 |
| 20260505151646 | 55 | 90 | 0.0 | 0.0 | 0.02 | 0.37 | 0.00 | 100 | 1014.5 |
| 20260505151142 | 55 | 90 | 0.0 | 0.0 | 0.01 | 0.36 | 0.00 | 100 | 1014.5 |
| 20260505150642 | 55 | 90 | 0.0 | 0.0 | 0.01 | 0.36 | 0.00 | 100 | 1014.4 |
| 20260505150142 | 55 | 90 | 0.0 | 0.0 | 0.01 | 0.36 | 0.00 | 100 | 1014.4 |
| 20260505140645 | 54 | 90 | 0.0 | 0.0 | 0.01 | 0.35 | 0.00 | 100 | 1014.1 |
| 20260505140146 | 54 | 90 | 0.0 | 0.0 | 0.01 | 0.35 | 0.00 | 100 | 1014.0 |
| 20260505130145 | 54 | 90 | 0.0 | 0.0 | 0.01 | 0.34 | 0.00 | 100 | 1013.7 |
| 20260505124642 | 54 | 90 | 0.0 | 0.0 | 0.01 | 0.34 | 0.00 | 100 | 1013.6 |
| 20260505124142 | 53 | 90 | 0.0 | 0.0 | 0.02 | 0.34 | 0.00 | 100 | 1013.6 |
| 20260505123651 | 53 | 90 | 0.0 | 0.0 | 0.02 | 0.34 | 0.00 | 100 | 1013.6 |
| 20260505123151 | 53 | 90 | 0.0 | 0.0 | 0.01 | 0.33 | 0.00 | 100 | 1013.5 |
| 20260505122652 | 53 | 90 | 0.0 | 0.0 | 0.01 | 0.33 | 0.00 | 100 | 1013.5 |
| 20260505122146 | 53 | 90 | 0.0 | 0.0 | 0.01 | 0.33 | 0.00 | 100 | 1013.6 |
| 20260505121648 | 53 | 90 | 0.0 | 0.0 | 0.01 | 0.33 | 0.00 | 100 | 1013.6 |
| 20260505121145 | 53 | 90 | 0.0 | 0.0 | 0.01 | 0.33 | 0.00 | 100 | 1013.6 |
| 20260505120642 | 53 | 90 | 0.0 | 0.0 | 0.01 | 0.33 | 0.00 | 100 | 1013.6 |
| 20260505120145 | 53 | 90 | 0.0 | 0.0 | 0.01 | 0.33 | 0.00 | 100 | 1013.5 |
| 20260505115645 | 53 | 90 | 0.0 | 0.0 | 0.02 | 0.33 | 0.00 | 100 | 1013.5 |
| 20260505115145 | 53 | 90 | 0.0 | 0.0 | 0.02 | 0.33 | 0.00 | 100 | 1013.6 |
| 20260505114645 | 53 | 90 | 0.0 | 0.0 | 0.02 | 0.33 | 0.00 | 100 | 1013.6 |
| 20260505114142 | 53 | 90 | 0.0 | 0.0 | 0.01 | 0.32 | 0.00 | 100 | 1013.6 |
| 20260505113642 | 53 | 90 | 0.0 | 0.0 | 0.01 | 0.32 | 0.00 | 100 | 1013.6 |
| 20260505113148 | 53 | 90 | 0.0 | 0.0 | 0.01 | 0.32 | 0.00 | 100 | 1013.6 |
| 20260505112642 | 53 | 90 | 0.0 | 0.0 | 0.01 | 0.32 | 0.00 | 100 | 1013.7 |
| 20260505112145 | 53 | 90 | 0.0 | 0.0 | 0.02 | 0.32 | 0.00 | 100 | 1013.8 |
| 20260505111642 | 53 | 90 | 0.0 | 0.0 | 0.02 | 0.32 | 0.00 | 100 | 1013.8 |
| 20260505111143 | 53 | 90 | 0.0 | 0.0 | 0.02 | 0.32 | 0.00 | 100 | 1013.8 |
| 20260505110642 | 53 | 90 | 0.0 | 0.0 | 0.02 | 0.32 | 0.00 | 100 | 1013.7 |
| 20260505110145 | 53 | 91 | 0.0 | 0.0 | 0.02 | 0.32 | 0.00 | 100 | 1013.8 |
| 20260505102151 | 53 | 90 | 0.0 | 0.0 | 0.02 | 0.30 | 0.00 | 100 | 1013.8 |
| 20260505101642 | 53 | 90 | 0.0 | 0.0 | 0.02 | 0.30 | 0.00 | 100 | 1013.9 |
| 20260505101145 | 53 | 90 | 0.0 | 0.0 | 0.02 | 0.30 | 0.00 | 100 | 1014.2 |
| 20260505100642 | 53 | 91 | 0.0 | 0.0 | 0.02 | 0.30 | 0.00 | 100 | 1013.9 |
| 20260505100143 | 53 | 91 | 0.0 | 0.0 | 0.02 | 0.30 | 0.00 | 100 | 1013.6 |
| 20260505095642 | 53 | 90 | 0.0 | 0.0 | 0.02 | 0.30 | 0.00 | 100 | 1013.5 |
| 20260505095148 | 53 | 90 | 0.0 | 0.0 | 0.02 | 0.29 | 0.00 | 100 | 1013.6 |
| 20260505094642 | 53 | 91 | 0.0 | 0.0 | 0.02 | 0.29 | 0.00 | 100 | 1013.7 |
| 20260505094148 | 53 | 91 | 0.0 | 0.0 | 0.02 | 0.29 | 0.00 | 100 | 1013.6 |
| 20260505093648 | 53 | 90 | 0.0 | 0.0 | 0.02 | 0.29 | 0.00 | 100 | 1013.6 |
| 20260505093142 | 53 | 90 | 0.0 | 0.0 | 0.02 | 0.29 | 0.00 | 100 | 1013.7 |
| 20260505092643 | 54 | 90 | 0.0 | 0.0 | 0.02 | 0.29 | 0.00 | 100 | 1013.7 |
| 20260505092148 | 54 | 91 | 0.0 | 0.0 | 0.02 | 0.29 | 0.00 | 100 | 1013.5 |
| 20260505091648 | 54 | 91 | 0.0 | 0.0 | 0.02 | 0.29 | 0.00 | 100 | 1013.5 |
| 20260505091142 | 54 | 90 | 0.0 | 0.0 | 0.02 | 0.29 | 0.00 | 100 | 1013.8 |
| 20260505090642 | 54 | 90 | 0.0 | 0.0 | 0.02 | 0.29 | 0.00 | 100 | 1014.2 |
| 20260505090145 | 54 | 90 | 0.0 | 0.0 | 0.02 | 0.29 | 0.00 | 100 | 1014.4 |
| 20260505085648 | 54 | 90 | 0.0 | 0.0 | 0.02 | 0.29 | 0.00 | 100 | 1014.4 |
| 20260505085143 | 54 | 90 | 0.0 | 0.0 | 0.01 | 0.28 | 0.00 | 100 | 1014.3 |
| 20260505084651 | 54 | 90 | 0.0 | 0.0 | 0.02 | 0.28 | 0.00 | 100 | 1014.3 |
| 20260505084145 | 54 | 90 | 0.0 | 0.0 | 0.02 | 0.28 | 0.00 | 100 | 1014.0 |
| 20260505083648 | 54 | 90 | 0.0 | 0.0 | 0.02 | 0.28 | 0.00 | 100 | 1014.3 |
| 20260505083142 | 54 | 90 | 0.0 | 4.0 | 0.02 | 0.28 | 0.00 | 100 | 1014.3 |
| 20260505082643 | 54 | 90 | 0.0 | 0.0 | 0.02 | 0.28 | 0.00 | 100 | 1014.3 |
| 20260505082145 | 54 | 90 | 0.0 | 0.0 | 0.01 | 0.27 | 0.00 | 100 | 1014.2 |
| 20260505081642 | 54 | 90 | 0.0 | 2.0 | 0.02 | 0.27 | 0.00 | 100 | 1014.2 |
| 20260505081142 | 54 | 90 | 0.0 | 0.0 | 0.02 | 0.27 | 0.00 | 100 | 1014.3 |
| 20260505080645 | 54 | 90 | 0.0 | 0.0 | 0.02 | 0.27 | 0.00 | 100 | 1014.3 |
| 20260505080148 | 54 | 91 | 0.0 | 0.0 | 0.02 | 0.27 | 0.00 | 100 | 1014.5 |
| 20260505075642 | 54 | 90 | 0.0 | 0.0 | 0.02 | 0.27 | 0.00 | 100 | 1014.6 |
| 20260505075148 | 54 | 91 | 0.0 | 0.0 | 0.03 | 0.27 | 0.00 | 100 | 1014.6 |
| 20260505074642 | 54 | 90 | 0.0 | 0.0 | 0.02 | 0.26 | 0.00 | 100 | 1014.6 |
| 20260505074149 | 54 | 90 | 0.0 | 0.0 | 0.02 | 0.26 | 0.00 | 100 | 1014.5 |
| 20260505073642 | 54 | 90 | 0.0 | 0.0 | 0.02 | 0.26 | 0.00 | 100 | 1014.3 |
| 20260505073142 | 54 | 90 | 0.0 | 0.0 | 0.02 | 0.26 | 0.00 | 100 | 1014.5 |
| 20260505072642 | 54 | 90 | 0.0 | 0.0 | 0.03 | 0.26 | 0.00 | 100 | 1014.4 |
| 20260505072146 | 54 | 91 | 0.0 | 0.0 | 0.03 | 0.26 | 0.00 | 100 | 1014.5 |
| 20260505071645 | 54 | 91 | 0.0 | 0.0 | 0.02 | 0.25 | 0.00 | 100 | 1014.4 |
| 20260505071145 | 54 | 91 | 0.0 | 0.0 | 0.02 | 0.25 | 0.00 | 100 | 1014.2 |
| 20260505070649 | 54 | 91 | 0.0 | 0.0 | 0.03 | 0.25 | 0.00 | 100 | 1014.2 |
| 20260505070142 | 54 | 90 | 0.0 | 0.0 | 0.03 | 0.25 | 0.00 | 100 | 1014.3 |
| 20260505065642 | 54 | 90 | 0.0 | 4.0 | 0.03 | 0.25 | 0.00 | 100 | 1014.5 |
| 20260505065148 | 54 | 91 | 0.0 | 0.0 | 0.02 | 0.24 | 0.00 | 100 | 1014.7 |
| 20260505064642 | 54 | 91 | 0.0 | 0.0 | 0.03 | 0.24 | 0.00 | 100 | 1014.8 |
| 20260505064142 | 54 | 91 | 0.0 | 0.0 | 0.03 | 0.24 | 0.00 | 100 | 1014.5 |
| 20260505063645 | 54 | 91 | 0.0 | 0.0 | 0.03 | 0.24 | 0.00 | 100 | 1014.3 |
| 20260505063142 | 54 | 91 | 0.0 | 1.0 | 0.03 | 0.24 | 0.00 | 100 | 1014.1 |
| 20260505062642 | 54 | 91 | 0.0 | 0.0 | 0.03 | 0.23 | 0.00 | 100 | 1014.5 |
| 20260505062145 | 54 | 91 | 0.0 | 0.0 | 0.03 | 0.23 | 0.00 | 100 | 1014.5 |
| 20260505061651 | 54 | 90 | 0.0 | 0.0 | 0.03 | 0.23 | 0.00 | 100 | 1015.1 |
| 20260505061142 | 54 | 90 | 0.0 | 0.0 | 0.03 | 0.23 | 0.00 | 100 | 1014.9 |
| 20260505060645 | 54 | 90 | 0.0 | 0.0 | 0.03 | 0.22 | 0.00 | 100 | 1015.0 |
| 20260505060148 | 54 | 91 | 0.0 | 0.0 | 0.03 | 0.22 | 0.00 | 100 | 1014.8 |
| 20260505055649 | 54 | 91 | 0.0 | 0.0 | 0.03 | 0.22 | 0.00 | 100 | 1014.9 |
| 20260505055148 | 54 | 91 | 0.0 | 0.0 | 0.03 | 0.22 | 0.00 | 100 | 1014.7 |
| 20260505054642 | 54 | 91 | 0.0 | 0.0 | 0.02 | 0.21 | 0.00 | 100 | 1014.6 |
| 20260505054145 | 54 | 91 | 0.0 | 0.0 | 0.03 | 0.21 | 0.00 | 100 | 1014.7 |
| 20260505053642 | 54 | 91 | 0.0 | 0.0 | 0.03 | 0.21 | 0.00 | 100 | 1014.6 |
| 20260505053148 | 54 | 91 | 0.0 | 0.0 | 0.03 | 0.21 | 0.00 | 100 | 1014.4 |
| 20260505052643 | 54 | 91 | 0.0 | 5.0 | 0.02 | 0.20 | 0.00 | 100 | 1014.5 |
| 20260505052143 | 54 | 80 | 1.0 | 5.0 | 0.03 | 0.20 | 0.00 | 100 | 1014.4 |
| 20260505051642 | 54 | 78 | 0.0 | 4.0 | 0.03 | 0.20 | 0.00 | 100 | 1014.7 |
| 20260505051142 | 54 | 76 | 0.0 | 0.0 | 0.03 | 0.20 | 0.00 | 100 | 1015.0 |
| 20260505050642 | 54 | 76 | 0.0 | 0.0 | 0.02 | 0.19 | 0.00 | 100 | 1015.1 |
| 20260505050148 | 54 | 76 | 0.0 | 0.0 | 0.03 | 0.19 | 0.00 | 100 | 1015.1 |
| 20260505041642 | 55 | 103 | 0.0 | 6.0 | 0.03 | 0.17 | 0.00 | 100 | 1015.0 |
| 20260505041143 | 54 | 103 | 5.0 | 6.0 | 0.03 | 0.17 | 0.00 | 100 | 1015.1 |
| 20260505040643 | 55 | 107 | 0.0 | 6.0 | 0.03 | 0.17 | 0.00 | 100 | 1015.0 |
| 20260505040148 | 55 | 107 | 5.0 | 6.0 | 0.02 | 0.16 | 0.00 | 100 | 1015.0 |
| 20260505035642 | 55 | 123 | 0.0 | 4.0 | 0.02 | 0.16 | 0.00 | 100 | 1015.0 |
| 20260505035142 | 54 | 123 | 0.0 | 0.0 | 0.02 | 0.16 | 0.00 | 100 | 1014.9 |
| 20260505034648 | 55 | 123 | 0.0 | 0.0 | 0.03 | 0.16 | 0.00 | 100 | 1014.7 |
| 20260505034148 | 55 | 123 | 0.0 | 0.0 | 0.03 | 0.16 | 0.00 | 100 | 1014.5 |
| 20260505033643 | 55 | 123 | 0.0 | 0.0 | 0.02 | 0.14 | 0.00 | 100 | 1014.3 |
| 20260505033142 | 55 | 124 | 0.0 | 0.0 | 0.02 | 0.14 | 0.00 | 100 | 1014.0 |
| 20260505032642 | 54 | 123 | 0.0 | 0.0 | 0.02 | 0.14 | 0.00 | 100 | 1014.1 |
| 20260505032152 | 54 | 123 | 0.0 | 0.0 | 0.02 | 0.14 | 0.00 | 100 | 1013.9 |
| 20260505031642 | 54 | 123 | 0.0 | 0.0 | 0.02 | 0.13 | 0.00 | 100 | 1013.6 |
| 20260505031146 | 54 | 125 | 0.0 | 0.0 | 0.02 | 0.13 | 0.00 | 100 | 1013.6 |
| 20260505030648 | 54 | 125 | 0.0 | 0.0 | 0.02 | 0.13 | 0.00 | 100 | 1013.9 |
| 20260505030148 | 54 | 125 | 0.0 | 0.0 | 0.02 | 0.13 | 0.00 | 100 | 1013.9 |
| 20260505025642 | 54 | 125 | 0.0 | 0.0 | 0.02 | 0.13 | 0.00 | 100 | 1013.9 |
| 20260505025142 | 54 | 125 | 0.0 | 0.0 | 0.03 | 0.13 | 0.00 | 100 | 1014.1 |
| 20260505024645 | 55 | 125 | 0.0 | 0.0 | 0.02 | 0.12 | 0.00 | 100 | 1014.1 |
| 20260505024143 | 55 | 125 | 0.0 | 0.0 | 0.02 | 0.12 | 0.00 | 100 | 1014.5 |
| 20260505023642 | 55 | 125 | 0.0 | 0.0 | 0.02 | 0.12 | 0.00 | 100 | 1014.6 |
| 20260505023148 | 55 | 125 | 0.0 | 0.0 | 0.02 | 0.12 | 0.00 | 100 | 1014.4 |
| 20260505022643 | 55 | 125 | 0.0 | 0.0 | 0.03 | 0.12 | 0.00 | 100 | 1014.3 |
| 20260505022145 | 55 | 125 | 0.0 | 0.0 | 0.03 | 0.12 | 0.00 | 100 | 1014.2 |
| 20260505021648 | 55 | 125 | 0.0 | 0.0 | 0.02 | 0.11 | 0.00 | 100 | 1014.6 |
| 20260505021145 | 55 | 126 | 0.0 | 0.0 | 0.02 | 0.11 | 0.00 | 100 | 1014.5 |
| 20260505020645 | 55 | 125 | 0.0 | 0.0 | 0.03 | 0.11 | 0.00 | 100 | 1014.7 |
| 20260505020142 | 55 | 126 | 0.0 | 0.0 | 0.03 | 0.11 | 0.00 | 100 | 1014.7 |
| 20260505015648 | 55 | 125 | 0.0 | 0.0 | 0.03 | 0.11 | 0.00 | 100 | 1014.7 |
| 20260505015145 | 55 | 125 | 0.0 | 0.0 | 0.02 | 0.10 | 0.00 | 100 | 1014.6 |
| 20260505014645 | 55 | 126 | 0.0 | 0.0 | 0.03 | 0.10 | 0.00 | 100 | 1014.6 |
| 20260505014142 | 55 | 126 | 0.0 | 1.0 | 0.03 | 0.10 | 0.00 | 100 | 1014.6 |
| 20260505013642 | 55 | 126 | 0.0 | 0.0 | 0.03 | 0.10 | 0.00 | 100 | 1014.7 |
| 20260505013142 | 55 | 126 | 0.0 | 0.0 | 0.04 | 0.10 | 0.00 | 100 | 1014.8 |
| 20260505012642 | 55 | 126 | 0.0 | 2.0 | 0.03 | 0.09 | 0.00 | 100 | 1014.8 |
| 20260505012148 | 55 | 127 | 0.0 | 0.0 | 0.03 | 0.09 | 0.00 | 100 | 1014.9 |
| 20260505011643 | 55 | 127 | 0.0 | 0.0 | 0.03 | 0.09 | 0.00 | 100 | 1014.9 |
| 20260505011142 | 55 | 127 | 0.0 | 0.0 | 0.04 | 0.09 | 0.00 | 100 | 1015.0 |
| 20260505010642 | 55 | 128 | 0.0 | 0.0 | 0.03 | 0.08 | 0.00 | 100 | 1015.0 |
| 20260505010151 | 55 | 127 | 0.0 | 0.0 | 0.03 | 0.08 | 0.00 | 100 | 1015.0 |
| 20260505005648 | 55 | 127 | 0.0 | 0.0 | 0.03 | 0.08 | 0.00 | 100 | 1015.0 |
| 20260505005143 | 55 | 127 | 0.0 | 0.0 | 0.03 | 0.08 | 0.00 | 100 | 1014.9 |
| 20260505004645 | 55 | 128 | 0.0 | 0.0 | 0.03 | 0.07 | 0.00 | 100 | 1014.9 |